CALSPHERE 1 1 00900U 64063C 25258.43937560 .00000692 00000+0 69934-3 0 9997 2 00900 90.2137 65.4220 0026731 47.5264 331.8191 13.76188743 33638 CALSPHERE 2 1 00902U 64063E 25258.49050516 .00000055 00000+0 70482-4 0 9996 2 00902 90.2266 69.3208 0016969 308.8463 108.4388 13.52871745819125 LCS 1 1 01361U 65034C 25258.51195446 .00000006 00000+0 -33706-3 0 9994 2 01361 32.1393 109.1960 0013465 230.4872 129.4435 9.89309313182683 TEMPSAT 1 1 01512U 65065E 25258.32317605 .00000060 00000+0 10372-3 0 9991 2 01512 89.9836 212.7565 0068003 301.5500 215.7458 13.33571662923411 CALSPHERE 4A 1 01520U 65065H 25258.36281670 .00000097 00000+0 16762-3 0 9995 2 01520 89.9147 125.0125 0069850 157.7913 17.3452 13.36215414926004 OPS 5712 (P/L 160) 1 02826U 67053A 25258.49783366 .00008029 00000+0 12893-2 0 9990 2 02826 69.9213 348.8445 0002313 351.5466 8.5640 14.71936273 25727 OPS 5712 (P/L 153) 1 02874U 67053H 25258.56819441 .00000007 00000+0 43721-4 0 9999 2 02874 69.9767 343.9051 0008332 212.6499 147.4092 13.96766752968430 SURCAL 150B 1 02909U 67053J 25258.43115427 .00262786 00000+0 53037-2 0 9990 2 02909 69.9132 224.0905 0004429 199.0679 161.0338 15.45377489 39584 RIGIDSPHERE 2 (LCS 4) 1 05398U 71067E 25258.53890023 .00000703 00000+0 22425-3 0 9995 2 05398 87.6166 55.0289 0062321 64.9376 295.8274 14.37330477834426 COSMOS 2493 (SKRL-756 1) 1 39490U 13078A 25258.52555966 .00003109 00000+0 24832-3 0 9993 2 39490 82.4164 169.4720 0015683 91.4214 268.8807 14.99856222636759 COSMOS 2494 (SKRL-756 2) 1 39491U 13078B 25258.52788537 .00004170 00000+0 31291-3 0 9992 2 39491 82.4149 159.9582 0019093 59.4727 300.8380 15.02264720637536